Logan, UT

3:33 AM MDT on April 29, 2017 (GMT -0600)
Logan-Cache

Weather History for KLGU - September, 2013

Change the Weather History Date:

Tuesday, September 10, 2013

  Actual Average Record
Temperature  
Mean Temperature 66 °F -  
Max Temperature 82 °F 80 °F 92 °F (1963)
Min Temperature 51 °F 47 °F 32 °F (2001)
Cooling Degree Days 1    
Growing Degree Days 16 (Base 50)    
Moisture  
Dew Point 46 °F    
Average Humidity 50    
Maximum Humidity 80    
Minimum Humidity 28    
Precipitation  
Precipitation 0.00 in - - ()
Sea Level Pressure  
Sea Level Pressure 29.92 in    
Wind  
Wind Speed 4 mph (ENE)    
Max Wind Speed 17 mph    
Max Gust Speed 24 mph    
Visibility 10 miles    
Events      
Averages and records for this station are not official NWS values.
T = Trace of Precipitation, MM = Missing Value Source: NWS Daily Summary

Daily Weather History Graph

Daily Weather History Graph

Search for Another Location

Airport or City:

Trip Planner

Search our weather history database for the weather conditions in past years. The results will help you decide how hot, cold, wet, or windy it might be!

Date:

Astronomy

Sep. 10, 2013 Rise Set
Actual Time 7:02 AM MDT 7:44 PM MDT
Civil Twilight 6:34 AM MDT 8:12 PM MDT
Nautical Twilight 6:01 AM MDT 8:46 PM MDT
Astronomical Twilight 5:26 AM MDT 9:20 PM MDT
Moon 12:37 PM MDT (9/10) 10:45 PM MDT (9/10)
Length of Visible Light 13h 38m
Length of Day
12h 42m
Waxing Crescent, 29% of the Moon is Illuminated
Sep 10
Waxing Crescent
Sep 12
First Quarter
Sep 19
Full
Sep 26
Last Quarter
Oct 4
New

Hourly Weather History & Observations

Time (MDT) Temp. Dew Point Humidity Pressure Visibility Wind Dir Wind Speed Gust Speed Precip Events Conditions
12:51 AM 59.0 °F 46.9 °F 64% 29.89 in 10.0 mi NE 3.5 mph - N/A   Clear
1:51 AM 59.0 °F 46.0 °F 62% 29.89 in 10.0 mi Calm Calm - N/A   Clear
2:51 AM 55.9 °F 46.0 °F 69% 29.89 in 10.0 mi Calm Calm - N/A   Clear
3:51 AM 55.9 °F 46.0 °F 69% 29.90 in 10.0 mi Calm Calm - N/A   Mostly Cloudy
4:51 AM 54.0 °F 46.0 °F 75% 29.90 in 10.0 mi ENE 3.5 mph - N/A   Clear
5:51 AM 52.0 °F 46.0 °F 80% 29.91 in 10.0 mi WSW 3.5 mph - N/A   Clear
6:51 AM 51.1 °F 45.0 °F 80% 29.92 in 10.0 mi Calm Calm - N/A   Clear
7:51 AM 52.0 °F 46.0 °F 80% 29.95 in 10.0 mi Calm Calm - N/A   Clear
8:51 AM 57.9 °F 46.9 °F 67% 29.96 in 10.0 mi SSW 4.6 mph - N/A   Clear
9:51 AM 60.1 °F 46.9 °F 62% 29.98 in 10.0 mi Calm Calm - N/A   Clear
10:51 AM 64.0 °F 45.0 °F 50% 29.97 in 10.0 mi North 3.5 mph - N/A   Clear
11:51 AM 71.1 °F 46.9 °F 42% 29.94 in 10.0 mi NNE 4.6 mph - N/A   Clear
12:51 PM 75.0 °F 48.0 °F 38% 29.92 in 10.0 mi Variable 3.5 mph - N/A   Clear
1:51 PM 78.1 °F 46.9 °F 33% 29.89 in 10.0 mi NE 5.8 mph - N/A   Clear
2:51 PM 81.0 °F 46.9 °F 30% 29.88 in 10.0 mi North 6.9 mph - N/A   Partly Cloudy
3:24 PM 80.6 °F 44.6 °F 28% 30.02 in 10.0 mi East 10.4 mph 24.2 mph N/A   Clear
3:51 PM 80.1 °F 45.0 °F 29% 29.88 in 10.0 mi ENE 6.9 mph - N/A   Mostly Cloudy
4:51 PM 79.0 °F 45.0 °F 30% 29.88 in 10.0 mi Calm Calm - N/A   Overcast
5:51 PM 79.0 °F 46.0 °F 31% 29.88 in 10.0 mi NE 17.3 mph 21.9 mph N/A   Overcast
6:51 PM 78.1 °F 46.0 °F 32% 29.89 in 10.0 mi ESE 8.1 mph 18.4 mph N/A   Overcast
7:51 PM 75.9 °F 46.9 °F 36% 29.91 in 10.0 mi East 6.9 mph - N/A   Overcast
8:51 PM 75.0 °F 46.9 °F 37% 29.90 in 10.0 mi East 13.8 mph 23.0 mph N/A   Overcast
9:51 PM 75.0 °F 48.0 °F 38% 29.92 in 10.0 mi Variable 5.8 mph 18.4 mph N/A   Overcast
10:51 PM 73.9 °F 48.0 °F 40% 29.91 in 10.0 mi SSE 8.1 mph - N/A   Overcast
11:51 PM 73.9 °F 46.9 °F 38% 29.91 in 10.0 mi ESE 13.8 mph 20.7 mph N/A   Mostly Cloudy